Time,TemperatureF,DewpointF,PressureIn,WindDirection,WindDirectionDegrees,WindSpeedMPH,WindSpeedGustMPH,Humidity,HourlyPrecipIn,Conditions,Clouds,dailyrainin,SoftwareType,DateUTC
2013-08-24 00:24:00,68.0,67.0,30.16,North,4,0.0,0.0,98,0.00,,,0.00,,2013-08-24 04:24:00,
2013-08-24 00:54:00,68.0,67.0,30.16,North,4,0.0,0.0,97,0.00,,,0.00,,2013-08-24 04:54:00,
2013-08-24 01:23:00,67.0,66.0,30.16,North,4,0.0,0.0,98,0.00,,,0.00,,2013-08-24 05:23:00,
2013-08-24 01:53:00,67.0,67.0,30.16,North,4,0.0,0.0,99,0.00,,,0.00,,2013-08-24 05:53:00,
2013-08-24 02:22:00,66.0,66.0,30.16,North,4,0.0,0.0,99,0.00,,,0.00,,2013-08-24 06:22:00,
2013-08-24 02:52:00,66.0,66.0,30.16,North,4,0.0,0.0,99,0.00,,,0.00,,2013-08-24 06:52:00,
2013-08-24 03:12:00,66.0,66.0,30.16,North,4,0.0,0.0,99,0.00,,,0.00,,2013-08-24 07:12:00,
2013-08-24 03:22:00,66.0,66.0,30.16,North,4,0.0,0.0,100,0.00,,,0.00,,2013-08-24 07:22:00,
2013-08-24 03:53:00,65.0,65.0,30.16,North,4,0.0,0.0,100,0.00,,,0.00,,2013-08-24 07:53:00,
2013-08-24 04:22:00,65.0,65.0,30.16,North,4,0.0,0.0,100,0.00,,,0.00,,2013-08-24 08:22:00,
2013-08-24 04:52:00,65.0,65.0,30.16,North,4,0.0,0.0,100,0.00,,,0.00,,2013-08-24 08:52:00,
2013-08-24 05:22:00,65.0,65.0,30.17,North,4,0.0,0.0,100,0.00,,,0.00,,2013-08-24 09:22:00,
2013-08-24 05:53:00,64.0,64.0,30.17,North,4,0.0,0.0,100,0.00,,,0.00,,2013-08-24 09:53:00,
2013-08-24 06:23:00,64.0,64.0,30.18,North,4,0.0,0.0,100,0.00,,,0.00,,2013-08-24 10:23:00,
2013-08-24 06:53:00,63.0,63.0,30.19,North,4,0.0,0.0,100,0.00,,,0.00,,2013-08-24 10:53:00,
2013-08-24 07:22:00,63.0,63.0,30.19,North,4,0.0,0.0,100,0.00,,,0.00,,2013-08-24 11:22:00,
2013-08-24 07:52:00,63.0,63.0,30.21,North,4,0.0,0.0,100,0.00,,,0.00,,2013-08-24 11:52:00,
2013-08-24 08:21:00,64.0,64.0,30.22,North,4,0.0,0.0,100,0.01,,,0.00,,2013-08-24 12:21:00,
2013-08-24 08:52:00,65.0,65.0,30.23,NE,34,0.0,2.0,100,0.01,,,0.00,,2013-08-24 12:52:00,
2013-08-24 09:22:00,68.0,67.0,30.25,ENE,58,1.0,2.0,97,0.00,,,0.00,,2013-08-24 13:22:00,
2013-08-24 09:52:00,69.0,68.0,30.26,NNE,32,3.0,4.0,96,0.00,,,0.00,,2013-08-24 13:52:00,
2013-08-24 10:22:00,72.0,70.0,30.27,NE,55,3.0,3.0,93,0.00,,,0.00,,2013-08-24 14:22:00,
2013-08-24 10:52:00,72.0,69.0,30.27,ENE,60,1.0,1.0,91,0.00,,,0.00,,2013-08-24 14:52:00,
2013-08-24 11:22:00,75.0,68.0,30.28,East,90,3.0,3.0,78,0.00,,,0.00,,2013-08-24 15:22:00,
2013-08-24 11:54:00,77.0,68.0,30.29,NE,48,2.0,2.0,74,0.00,,,0.00,,2013-08-24 15:54:00,
2013-08-24 12:23:00,78.0,68.0,30.29,ENE,66,0.0,4.0,72,0.00,,,0.00,,2013-08-24 16:23:00,
2013-08-24 12:53:00,80.0,65.0,30.28,ESE,122,2.0,4.0,60,0.00,,,0.00,,2013-08-24 16:53:00,
2013-08-24 13:23:00,80.0,61.0,30.28,East,91,4.0,4.0,52,0.00,,,0.00,,2013-08-24 17:23:00,
2013-08-24 13:52:00,81.0,64.0,30.27,SSE,150,2.0,2.0,57,0.00,,,0.00,,2013-08-24 17:52:00,
2013-08-24 14:22:00,81.0,58.0,30.27,North,356,3.0,4.0,46,0.00,,,0.00,,2013-08-24 18:22:00,
2013-08-24 14:53:00,81.0,61.0,30.27,ENE,62,3.0,3.0,50,0.00,,,0.00,,2013-08-24 18:53:00,
2013-08-24 15:22:00,82.0,60.0,30.27,SSE,149,1.0,2.0,47,0.00,,,0.00,,2013-08-24 19:22:00,
2013-08-24 15:52:00,81.0,56.0,30.27,East,93,2.0,2.0,43,0.00,,,0.00,,2013-08-24 19:52:00,
2013-08-24 16:22:00,82.0,58.0,30.27,NNE,31,3.0,3.0,44,0.00,,,0.00,,2013-08-24 20:22:00,
2013-08-24 16:53:00,82.0,59.0,30.27,NE,56,4.0,4.0,45,0.00,,,0.00,,2013-08-24 20:53:00,
2013-08-24 17:22:00,81.0,61.0,30.27,SE,131,1.0,0.0,51,0.00,,,0.00,,2013-08-24 21:22:00,
2013-08-24 17:55:00,81.0,58.0,30.26,SE,139,2.0,0.0,46,0.00,,,0.00,,2013-08-24 21:55:00,
2013-08-24 18:24:00,81.0,60.0,30.26,South,179,0.0,1.0,49,0.00,,,0.00,,2013-08-24 22:24:00,
2013-08-24 18:53:00,79.0,61.0,30.26,SE,143,1.0,0.0,54,0.00,,,0.00,,2013-08-24 22:53:00,
2013-08-24 19:22:00,78.0,62.0,30.26,SW,224,1.0,0.0,59,0.00,,,0.00,,2013-08-24 23:22:00,
2013-08-24 19:43:00,77.0,63.0,30.25,SSW,194,0.0,0.0,63,0.00,,,0.00,,2013-08-24 23:43:00,
2013-08-24 19:53:00,77.0,63.0,30.25,SSW,194,0.0,0.0,63,0.00,,,0.00,,2013-08-24 23:53:00,
2013-08-24 20:22:00,73.0,62.0,30.25,SSW,194,0.0,0.0,69,0.00,,,0.00,,2013-08-25 00:22:00,
2013-08-24 20:52:00,71.0,62.0,30.26,SSW,194,0.0,0.0,73,0.00,,,0.00,,2013-08-25 00:52:00,
2013-08-24 21:22:00,70.0,62.0,30.27,SSW,203,0.0,0.0,76,0.00,,,0.00,,2013-08-25 01:22:00,
2013-08-24 21:52:00,69.0,63.0,30.27,SSW,203,0.0,0.0,80,0.00,,,0.00,,2013-08-25 01:52:00,
2013-08-24 22:22:00,69.0,64.0,30.27,SSW,203,0.0,0.0,83,0.00,,,0.00,,2013-08-25 02:22:00,
2013-08-24 22:52:00,68.0,64.0,30.28,SSW,211,0.0,0.0,87,0.00,,,0.00,,2013-08-25 02:52:00,
2013-08-24 23:23:00,67.0,64.0,30.29,SSW,211,0.0,0.0,89,0.00,,,0.00,,2013-08-25 03:23:00,
2013-08-24 23:54:00,67.0,65.0,30.29,SSW,211,0.0,0.0,92,0.00,,,0.00,,2013-08-25 03:54:00,